Погода в Бахердене

Погода в Бахердене : погода сейчас, прогноз погоды и архив. Всё, что Вы хотите узнать о погоде в Бахердене!

Поиск расширенной информации на нашем сайте:

Другие новости

Новости СМИ2

Главная страница сайта

Новости сайта

03.07.2017

Напоминаем, что на нашем специализированном сайте Метеоцентр.Азия вы можете получить высокодетализированные автоматические прогнозы погоды по пунктам России, СНГ и мира в авиационном формате (включающие направление и скорость ветра, видимость, явления погоды, количество и форму облачности, нижнюю и верхнюю границу облачности).

Рекомендуем: Прямо на сайте экспресс заказ пазла, подробности на сайте.

Погода в Бахердене - сегодня

Время (UTC), дата Ветер
(°,м/с) 
Видим.   Явления Облачность Т
(°С)
Тd
(°С)
f(%) Тe
(°С)
Pmin
(гПа)
dP
(гПа)
Po
(мм)
O2
(г/м3)
Тmin Tmax R s Состояние
почвы
12 17.02.18 110 (В) 2000 м  дымка  10/10 300 м 
[St]
+7 +4 81 +8  1026.5  -1.4  755  295         
15 17.02.18 100 (В) 2000 м  дымка  10/10 300 м 
[St]
+6.9 +5.1 88 +8  1026.1  -0.4  755  296    +7.2       
18 17.02.18 090 (В) 2000 м  дымка  10/10 300 м 
[St]
+6.4 +4.8 89 +6  1025.6  -0.4  754  296    +7.2       
21 17.02.18 090 (В) 2000 м  дымка  10/10 300 м 
[St]
+5.8 +4.5 91 +7  1025.1  -0.4  754  297           
00 18.02.18 090 (В) 2000 м  дымка  10/10 300 м 
[St]
+4.7 +3.3 91 +4  1023.4  -1.9  753  298           
03 18.02.18 110 (В) 2000 м  дымка  10/10 300 м 
[St]
+4.2 +3 92 +4  1023.3  -0.1  753  298           
06 18.02.18 130 (ЮВ) 2000 м  дымка  10/10 300 м 
[St]
+5.2 +3 86 +3  1021.5  -1.7  751  297  +3.9         
09 18.02.18 150 (ЮВ) 2000 м  дымка  10/10 300 м 
[St]
+8.6 +4.8 77 +9  1018.7  -2.6  749  292           
12 18.02.18 140 (ЮВ) 2000 м  дымка  10/10 300 м 
[St]
+10.9 +5.8 71 +10  1017.1  -1.4  748  289           
15 18.02.18 120 (ЮВ) 2000 м  дымка  10/10 300 м 
[St]
+10 +3.6 64 +10  1014.8  -2.4  747  290    +11.1       
18 18.02.18 120 (ЮВ) 2000 м  дымка  10/10 300 м 
[St]
+8.8 +4 72 +8  1013.2  -1.6  745  290    +11.1       
21 18.02.18 тихо ()   2000 м  дымка  10/10 300 м 
[St]
+8.2 +4 75 +8  1013  -1.4  745  291           
00 19.02.18 320 (СЗ) 2000 м  дымка  10/10 300 м 
[St]
+7.4 +3.4 76 +8  1014.3  1.2  746  292           
03 19.02.18 310 (СЗ) 2000 м  дымка  10/10 300 м 
[St]
+6.6 +3.8 82 +6  1016.7  1.8  750  295           
06 19.02.18 120 (ЮВ) 2000 м  в посл. час дождь  10/10 300 м 
[Ns]
+7 +4.5 84 +8  1016.5  0.4  748  293  +6.5         
09 19.02.18 130 (ЮВ) 2000 м  дождь  10/10 300 м 
[Ns]
+6.7 +5.8 94 +8  1016.1  -0.4  747  293           
12 19.02.18 050 (СВ) 2000 м  дымка{дождь}  10/10 300 м 
[Ns]
+7.8 +5.8 87 +9  1017.4  748  292           
15 19.02.18 140 (ЮВ) 2000 м  дымка  10/10 300 м 
[Ns]
+8.2 +6.7 90 +9  1018.7  6.1  749  292    +8.2     
18 19.02.18 тихо ()   2000 м  дымка  10/10 300 м 
[Ns]
+8.1 +6.5 90 +8  1019.4  0.7  750  292    +8.2     
21 19.02.18 тихо ()   2000 м  дымка  10/10 300 м 
[Ns]
+8.1 +6.5 90 +8  1018  -1.4  749  292           
00 20.02.18 330 (СЗ) 2000 м  дымка  10/10 300 м 
[Ns]
+6.1 +4.2 88 +7  1019.9  1.7  750  295           
03 20.02.18 250 (З) 20000 м    ясно 
-1.1 -1.7 96 -1  1031.5  0.8  758  307           
06 20.02.18 120 (ЮВ) 20000 м    3/3 600 м 
[Cu hum]
+5.4 +2.7 83 +6  1030.8  1.2  758  299  +0.4       
09 20.02.18 160 (Ю) 2000 м    8/8 2000 м средняя 
[Ac As]
+7.6 +4.5 81 +8  1021.9  0.3  752  294           
12 20.02.18 тихо ()   2000 м    8/8 2000 м средняя 
[Ac As]
+8.9 +5.3 78 +9  1020.9  -0.9  751  292           
Время (UTC), дата Ветер
(°,м/с) 
Видим.   Явления Облачность Т
(°С)
Тd
(°С)
f(%) Тe
(°С)
Pmin
(гПа)
dP
(гПа)
Po
(мм)
O2
(г/м3)
Тmin Tmax R s Состояние
почвы

Для получения пояснительной информации подведите курсор к названию столбца.

ПОГОДА в Бахердене - архив

Всё, что Вы хотите узнать о погоде в Бахердене - удобно и подробно!

Выберите нужную дату (начиная с 1 января 2015* года) и нажмите кнопку "Найти".
Будут отображены архивные сводки погоды по пункту Бахерден, начиная с указанной даты.


Отображать данные в формате CSV (для использования в таблицах Excel)


Внимание! Наш архив погоды предназначен исключительно для личного некоммерческого использования в познавательных целях. Если Вам необходимы официальные справки о состоянии погоды (для производственных, юридических, коммерческих и т.п. целей), обращайтесь в органы Росгидромета.

*Примечание: данная дата относится к архиву по метеостанциям СССР (Россия, СНГ, Балтия).
Архив по метеостанциям Зарубежной Европы и Азии (кроме Китая) хранится 10 дней, по другим регионам земного шара (Китай, Африка, Америка, Австралия, Океания) - 1 день.

Бахерден - район местоположения метеостанции


Название, широта, долгота, высота метеостанции:
Бахерден 38.4°ш. 57.4°д. 159 м над ур. моря [Туркменистан]

Дополнительная информация

В oтличие oт бoльшинства пoгoдных сайтoв мы публикуем пoдрoбную метеoинфoрмацию в детальнoм прoфессиoнальнoм фoрмате.

Характеристики температуры и влажнoсти вoздуха измеряются на высoте 2 м в тени вдали oт зданий и деревьев.
Скoрoсть ветра измеряется на высoте 10 м (на урoвне рoста челoвека скoрoсть ветра ниже в 1.5-2 раза). Если метеoстанция нахoдится в гoрoде или в лесу, тo скoрoсть ветра занижена на 2-4 м/с пo сравнению с oткрытым местoм. Скoрoсть ветра над акватoриями крупных рек и oзёр, а также на вершинах хoлмoв на 2-5 м/с выше, чем в oбычных услoвиях.
Атмoсфернoе давление в разных тoчках местнoсти мoжет значительнo oтличаться oт давления на метеoстанции, в зависимoсти oт услoвий рельефа (при пoдъёме на 10 м давление пoнижается примернo на 1 мм рт.ст.).